Location: Newark
(50.4348°N, 30.5552°E)
Time: 20:56:56
(UTC+00:00)

Courier 1B Rocket - Pass Details

Date: 01 February 2020
Orbit: 920 x 1202 km, 28.2° (Epoch: 22 February)

Event Time Altitude Azimuth Distance (km) Brightness Sun altitude
Rises 09:28:04 0° 235° (SW) 4,036 8.5 21.7°
Reaches altitude 10° 09:33:49 10° 202° (SSW) 3,009 8.7 21.9°
Maximum altitude 09:35:27 11° 189° (S) 2,926 9.1 21.9°
Drops below altitude 10° 09:37:05 10° 176° (S) 2,964 9.7 21.9°
Sets 09:42:33 0° 142° (SE) 3,837 9.1 22.1°
